Weather in Melovoy

Russia / Ulyanovsk Oblast     54°07′05″N   48°19′34″E
temp.,
°C
wind,
m/s
gust,
m/s
humid.,
%
clouds,
%
prec.,
mm/h
press.,
hPa
HPBL,
m
15 april, thu
thu1501:00+10sse33860 0.0 102232
04:00+9se22830 0.0 102215
07:00+9se22830 0.0 102120
10:00+15sse24590 0.0 1020348
13:00+18s34433 0.0 1019804
16:00+20s34393 0.0 10181111
19:00+17sse115324 0.0 101811
22:00+13e116054 0.0 101810
16 april, fri
fri1601:00+11ese1164100 0.0 101910
04:00+10ne2167100 0.0 101910
07:00+8ne3680100 0.0 1020123
10:00+10ne4681100 0.0 1021259
13:00+14nne4565100 0.0 1021480
16:00+15nne456043 0.0 1021520
19:00+11nne497526 0.0 1022266
22:00+9ne5118551 0.0 1023261
17 april, sat
sat1701:00+7ne4108615 0.0 1023227
04:00+6ne4109330 0.0 1024213
07:00+5ne410939 0.0 1025253
10:00+10ene58695 0.0 1025488
13:00+13ene67535 0.0 1024841
16:00+14ene57430 0.0 10231055
19:00+11ne48515 0.0 1023299
22:00+8ene411580 0.0 1024303
18 april, sun
sun1801:00+6ene411640 0.0 1023261
04:00+4ene410670 0.0 1023245
07:00+4ene512671 0.0 1023316
10:00+9ene695089 0.0 1022624
13:00+11e5640100 0.0 10221185
16:00+11ne2544100 0.2 1022844
19:00+9ne2456100 0.1 1021135
22:00+8ne51159100 0.1 1022445
19 april, mon
mon1901:00+6ene6117194 0.0 1024590
04:00+3ene5116997 0.0 1027457
07:00+2ene61162100 0.0 1027475
10:00+4ene71057100 0.0 1027817
13:00+6e7955100 0.0 10281403
16:00+8e7947100 0.0 10271652
19:00+7e5954100 0.0 10261377
22:00+5ene5115699 0.0 1027623